Time,TemperatureF,DewpointF,PressureIn,WindDirection,WindDirectionDegrees,WindSpeedMPH,WindSpeedGustMPH,Humidity,HourlyPrecipIn,Conditions,Clouds,dailyrainin,SoftwareType,DateUTC
2013-01-31 00:01:00,-5.0,-8.0,-100.00,NW,320,7.0,19.0,87,0.00,,,-99.99,,2013-01-31 06:01:00,
2013-01-31 08:02:00,-8.0,-11.0,-100.00,NW,305,7.0,22.0,88,0.00,,,-99.99,,2013-01-31 14:02:00,
2013-01-31 08:11:00,-8.0,-11.0,-100.00,NW,305,7.0,22.0,88,0.00,,,-99.99,,2013-01-31 14:11:00,
2013-01-31 08:22:00,-9.0,-11.0,-100.00,NNW,335,4.0,21.0,88,0.00,,,-99.99,,2013-01-31 14:22:00,
2013-01-31 08:32:00,-9.0,-11.0,-100.00,NW,310,6.0,22.0,88,0.00,,,-99.99,,2013-01-31 14:32:00,
2013-01-31 08:42:00,-9.0,-11.0,-100.00,NW,310,6.0,22.0,88,0.00,,,-99.99,,2013-01-31 14:42:00,
2013-01-31 08:52:00,-9.0,-11.0,-100.00,NW,310,6.0,22.0,88,0.00,,,-99.99,,2013-01-31 14:52:00,
2013-01-31 09:03:00,-9.0,-11.0,-100.00,NW,305,11.0,26.0,88,0.00,,,-99.99,,2013-01-31 15:03:00,
2013-01-31 09:12:00,-9.0,-11.0,-100.00,NW,305,11.0,26.0,88,0.00,,,-99.99,,2013-01-31 15:12:00,
2013-01-31 09:22:00,-9.0,-12.0,-100.00,NW,305,5.0,24.0,87,0.00,,,-99.99,,2013-01-31 15:22:00,
2013-01-31 09:32:00,-9.0,-12.0,-100.00,NW,325,8.0,24.0,87,0.00,,,-99.99,,2013-01-31 15:32:00,
2013-01-31 09:42:00,-10.0,-13.0,-100.00,NW,305,10.0,26.0,85,0.00,,,-99.99,,2013-01-31 15:42:00,
2013-01-31 09:51:00,-10.0,-13.0,-100.00,NW,305,10.0,26.0,85,0.00,,,-99.99,,2013-01-31 15:51:00,
2013-01-31 10:03:00,-10.0,-13.0,-100.00,NW,325,6.0,26.0,85,0.00,,,-99.99,,2013-01-31 16:03:00,
2013-01-31 10:12:00,-10.0,-13.0,-100.00,NW,325,6.0,26.0,85,0.00,,,-99.99,,2013-01-31 16:12:00,
2013-01-31 10:21:00,-10.0,-13.0,-100.00,NW,320,9.0,21.0,85,0.00,,,-99.99,,2013-01-31 16:21:00,
2013-01-31 10:33:00,-10.0,-13.0,-100.00,NW,315,17.0,27.0,85,0.00,,,-99.99,,2013-01-31 16:33:00,
2013-01-31 10:42:00,-9.0,-13.0,-100.00,WNW,300,11.0,24.0,83,0.00,,,-99.99,,2013-01-31 16:42:00,
2013-01-31 10:52:00,-9.0,-13.0,-100.00,WNW,300,11.0,24.0,83,0.00,,,-99.99,,2013-01-31 16:52:00,
2013-01-31 11:02:00,-9.0,-13.0,-100.00,NW,320,7.0,26.0,83,0.00,,,-99.99,,2013-01-31 17:02:00,
2013-01-31 11:12:00,-9.0,-13.0,-100.00,NW,320,7.0,26.0,83,0.00,,,-99.99,,2013-01-31 17:12:00,
2013-01-31 11:23:00,-9.0,-12.0,-100.00,NW,320,3.0,25.0,82,0.00,,,-99.99,,2013-01-31 17:23:00,
2013-01-31 11:32:00,-8.0,-12.0,-100.00,NW,305,6.0,24.0,82,0.00,,,-99.99,,2013-01-31 17:32:00,
2013-01-31 11:43:00,-7.0,-11.0,-100.00,NW,320,6.0,21.0,80,0.00,,,-99.99,,2013-01-31 17:43:00,
2013-01-31 11:53:00,-7.0,-11.0,-100.00,NW,320,6.0,21.0,80,0.00,,,-99.99,,2013-01-31 17:53:00,
2013-01-31 12:02:00,-7.0,-12.0,-100.00,NW,310,9.0,22.0,80,0.00,,,-99.99,,2013-01-31 18:02:00,
2013-01-31 12:12:00,-7.0,-12.0,-100.00,NW,310,9.0,22.0,80,0.00,,,-99.99,,2013-01-31 18:12:00,
2013-01-31 12:22:00,-7.0,-12.0,-100.00,NW,315,5.0,23.0,81,0.00,,,-99.99,,2013-01-31 18:22:00,
2013-01-31 12:32:00,-7.0,-11.0,-100.00,NW,315,3.0,9.0,81,0.00,,,-99.99,,2013-01-31 18:32:00,
2013-01-31 12:43:00,-7.0,-12.0,-100.00,NW,315,7.0,27.0,81,0.00,,,-99.99,,2013-01-31 18:43:00,
2013-01-31 12:52:00,-7.0,-12.0,-100.00,NW,315,7.0,27.0,81,0.00,,,-99.99,,2013-01-31 18:52:00,
2013-01-31 13:02:00,-7.0,-11.0,-100.00,NW,310,4.0,23.0,79,0.00,,,-99.99,,2013-01-31 19:02:00,
2013-01-31 13:12:00,-7.0,-11.0,-100.00,NW,310,4.0,23.0,79,0.00,,,-99.99,,2013-01-31 19:12:00,
2013-01-31 13:21:00,-6.0,-11.0,-100.00,NNW,330,6.0,21.0,77,0.00,,,-99.99,,2013-01-31 19:21:00,
2013-01-31 13:32:00,-7.0,-12.0,-100.00,NW,315,4.0,23.0,76,0.00,,,-99.99,,2013-01-31 19:32:00,
2013-01-31 13:42:00,-7.0,-12.0,-100.00,NW,320,4.0,24.0,76,0.00,,,-99.99,,2013-01-31 19:42:00,
2013-01-31 13:52:00,-7.0,-12.0,-100.00,NW,320,4.0,24.0,76,0.00,,,-99.99,,2013-01-31 19:52:00,
2013-01-31 14:02:00,-6.0,-12.0,-100.00,NW,325,9.0,26.0,76,0.00,,,-99.99,,2013-01-31 20:02:00,
2013-01-31 14:11:00,-6.0,-12.0,-100.00,NW,325,9.0,26.0,76,0.00,,,-99.99,,2013-01-31 20:11:00,
2013-01-31 14:21:00,-6.0,-11.0,-100.00,NW,315,4.0,20.0,77,0.00,,,-99.99,,2013-01-31 20:21:00,
2013-01-31 14:31:00,-6.0,-12.0,-100.00,NW,320,10.0,23.0,77,0.00,,,-99.99,,2013-01-31 20:31:00,
2013-01-31 14:42:00,-6.0,-12.0,-100.00,NW,315,4.0,21.0,77,0.00,,,-99.99,,2013-01-31 20:42:00,
2013-01-31 14:52:00,-6.0,-12.0,-100.00,NW,315,4.0,21.0,77,0.00,,,-99.99,,2013-01-31 20:52:00,
2013-01-31 15:02:00,-6.0,-11.0,-100.00,NW,315,4.0,19.0,77,0.00,,,-99.99,,2013-01-31 21:02:00,
2013-01-31 15:12:00,-6.0,-11.0,-100.00,NW,315,4.0,19.0,77,0.00,,,-99.99,,2013-01-31 21:12:00,
2013-01-31 15:21:00,-6.0,-11.0,-100.00,NW,315,6.0,19.0,77,0.00,,,-99.99,,2013-01-31 21:21:00,
2013-01-31 15:32:00,-6.0,-11.0,-100.00,NW,310,4.0,20.0,76,0.00,,,-99.99,,2013-01-31 21:32:00,
2013-01-31 15:42:00,-6.0,-12.0,-100.00,NW,320,10.0,24.0,75,0.00,,,-99.99,,2013-01-31 21:42:00,
2013-01-31 15:52:00,-6.0,-12.0,-100.00,NW,320,10.0,24.0,75,0.00,,,-99.99,,2013-01-31 21:52:00,
2013-01-31 16:02:00,-7.0,-13.0,-100.00,NW,325,3.0,21.0,75,0.00,,,-99.99,,2013-01-31 22:02:00,
2013-01-31 16:11:00,-7.0,-13.0,-100.00,NW,325,3.0,21.0,75,0.00,,,-99.99,,2013-01-31 22:11:00,
2013-01-31 16:22:00,-7.0,-13.0,-100.00,NW,315,4.0,20.0,74,0.00,,,-99.99,,2013-01-31 22:22:00,
2013-01-31 16:32:00,-7.0,-13.0,-100.00,NW,325,3.0,21.0,74,0.00,,,-99.99,,2013-01-31 22:32:00,
2013-01-31 16:42:00,-8.0,-13.0,-100.00,NW,320,5.0,9.0,76,0.00,,,-99.99,,2013-01-31 22:42:00,
2013-01-31 16:51:00,-8.0,-13.0,-100.00,NW,320,5.0,9.0,76,0.00,,,-99.99,,2013-01-31 22:51:00,
2013-01-31 17:02:00,-8.0,-13.0,-100.00,WNW,300,3.0,9.0,76,0.00,,,-99.99,,2013-01-31 23:02:00,
2013-01-31 17:12:00,-8.0,-13.0,-100.00,WNW,300,3.0,9.0,76,0.00,,,-99.99,,2013-01-31 23:12:00,
2013-01-31 17:21:00,-9.0,-14.0,-100.00,NW,310,4.0,19.0,77,0.00,,,-99.99,,2013-01-31 23:21:00,
2013-01-31 17:32:00,-9.0,-14.0,-100.00,NW,305,4.0,9.0,78,0.00,,,-99.99,,2013-01-31 23:32:00,
2013-01-31 17:42:00,-9.0,-14.0,-100.00,NW,305,4.0,9.0,77,0.00,,,-99.99,,2013-01-31 23:42:00,
2013-01-31 17:52:00,-9.0,-14.0,-100.00,NW,305,4.0,9.0,77,0.00,,,-99.99,,2013-01-31 23:52:00,
2013-01-31 18:01:00,-10.0,-15.0,-100.00,NW,310,3.0,9.0,77,0.00,,,-99.99,,2013-02-01 00:01:00,
2013-01-31 18:11:00,-10.0,-15.0,-100.00,NW,310,3.0,9.0,77,0.00,,,-99.99,,2013-02-01 00:11:00,
2013-01-31 18:21:00,-10.0,-15.0,-100.00,NW,310,4.0,9.0,76,0.00,,,-99.99,,2013-02-01 00:21:00,
2013-01-31 18:32:00,-10.0,-16.0,-100.00,WNW,300,6.0,9.0,76,0.00,,,-99.99,,2013-02-01 00:32:00,
2013-01-31 18:42:00,-10.0,-16.0,-100.00,WNW,300,6.0,9.0,76,0.00,,,-99.99,,2013-02-01 00:42:00,
2013-01-31 18:51:00,-10.0,-16.0,-100.00,WNW,300,6.0,9.0,76,0.00,,,-99.99,,2013-02-01 00:51:00,
2013-01-31 19:01:00,-11.0,-16.0,-100.00,NW,310,7.0,9.0,76,0.00,,,-99.99,,2013-02-01 01:01:00,
2013-01-31 19:11:00,-11.0,-16.0,-100.00,NW,310,7.0,9.0,76,0.00,,,-99.99,,2013-02-01 01:11:00,
2013-01-31 19:21:00,-11.0,-17.0,-100.00,NW,315,6.0,9.0,76,0.00,,,-99.99,,2013-02-01 01:21:00,
2013-01-31 19:32:00,-12.0,-17.0,-100.00,NW,310,6.0,9.0,76,0.00,,,-99.99,,2013-02-01 01:32:00,
2013-01-31 19:42:00,-12.0,-17.0,-100.00,NW,305,6.0,9.0,76,0.00,,,-99.99,,2013-02-01 01:42:00,
2013-01-31 19:52:00,-12.0,-17.0,-100.00,NW,305,6.0,9.0,76,0.00,,,-99.99,,2013-02-01 01:52:00,
2013-01-31 20:02:00,-12.0,-17.0,-100.00,NW,305,7.0,9.0,76,0.00,,,-99.99,,2013-02-01 02:02:00,
2013-01-31 20:11:00,-12.0,-17.0,-100.00,NW,305,7.0,9.0,76,0.00,,,-99.99,,2013-02-01 02:11:00,
2013-01-31 20:21:00,-12.0,-18.0,-100.00,NW,310,7.0,9.0,76,0.00,,,-99.99,,2013-02-01 02:21:00,
2013-01-31 20:31:00,-12.0,-18.0,-100.00,WNW,300,6.0,9.0,76,0.00,,,-99.99,,2013-02-01 02:31:00,
2013-01-31 20:42:00,-12.0,-18.0,-100.00,NW,305,6.0,9.0,76,0.00,,,-99.99,,2013-02-01 02:42:00,
2013-01-31 20:52:00,-12.0,-18.0,-100.00,NW,305,6.0,9.0,76,0.00,,,-99.99,,2013-02-01 02:52:00,
2013-01-31 21:02:00,-13.0,-18.0,-100.00,NW,305,5.0,9.0,76,0.00,,,-99.99,,2013-02-01 03:02:00,
2013-01-31 21:12:00,-13.0,-18.0,-100.00,NW,305,5.0,9.0,76,0.00,,,-99.99,,2013-02-01 03:12:00,
2013-01-31 21:21:00,-13.0,-18.0,-100.00,WNW,295,3.0,9.0,76,0.00,,,-99.99,,2013-02-01 03:21:00,
2013-01-31 21:32:00,-13.0,-18.0,-100.00,NW,310,6.0,9.0,75,0.00,,,-99.99,,2013-02-01 03:32:00,
2013-01-31 21:42:00,-13.0,-19.0,-100.00,NW,305,6.0,9.0,75,0.00,,,-99.99,,2013-02-01 03:42:00,
2013-01-31 21:51:00,-13.0,-19.0,-100.00,NW,305,6.0,9.0,75,0.00,,,-99.99,,2013-02-01 03:51:00,
2013-01-31 22:02:00,-13.0,-19.0,-100.00,NW,310,4.0,9.0,75,0.00,,,-99.99,,2013-02-01 04:02:00,
2013-01-31 22:11:00,-13.0,-19.0,-100.00,NW,310,4.0,9.0,75,0.00,,,-99.99,,2013-02-01 04:11:00,
2013-01-31 22:21:00,-14.0,-19.0,-100.00,WNW,290,4.0,7.0,75,0.00,,,-99.99,,2013-02-01 04:21:00,
2013-01-31 22:32:00,-14.0,-19.0,-100.00,WNW,295,6.0,8.0,76,0.00,,,-99.99,,2013-02-01 04:32:00,
2013-01-31 22:41:00,-14.0,-19.0,-100.00,WNW,300,6.0,9.0,76,0.00,,,-99.99,,2013-02-01 04:41:00,
2013-01-31 22:51:00,-14.0,-19.0,-100.00,WNW,300,6.0,9.0,76,0.00,,,-99.99,,2013-02-01 04:51:00,
2013-01-31 23:03:00,-14.0,-19.0,-100.00,NW,305,6.0,9.0,76,0.00,,,-99.99,,2013-02-01 05:03:00,
2013-01-31 23:12:00,-14.0,-19.0,-100.00,NW,305,6.0,9.0,76,0.00,,,-99.99,,2013-02-01 05:12:00,
2013-01-31 23:22:00,-14.0,-19.0,-100.00,NW,310,7.0,9.0,76,0.00,,,-99.99,,2013-02-01 05:22:00,
2013-01-31 23:32:00,-14.0,-19.0,-100.00,NW,315,6.0,9.0,76,0.00,,,-99.99,,2013-02-01 05:32:00,
2013-01-31 23:42:00,-15.0,-20.0,-100.00,NW,310,4.0,8.0,76,0.00,,,-99.99,,2013-02-01 05:42:00,
2013-01-31 23:52:00,-15.0,-20.0,-100.00,NW,310,4.0,8.0,76,0.00,,,-99.99,,2013-02-01 05:52:00,